www.pogodaiklimat.ru

Погода и климат >> Архив погоды >> Австралия >> Западная Австралия >> Лавертон


ПОГОДА в Лавертоне

  • Прогноз погоды в Лавертоне
  • Монитор погоды в Лавертоне

АРХИВ ПОГОДЫ в Лавертоне

Время (UTC), дата Ветер
(напр.,м/с)
 
Видим.   Явления Облачность Т
(С)
Тd
(С)
f
(%)
Тe
(С)
Тes
(С)
Комфортность P
(гПа)
Po
(гПа)
Тmin
(С)
Tmax
(С)
R
(мм)
R24
(мм)
S
(см)
07 12.04 В 7 н/о н/о +25.1 +13.0 47 +27 +27 жарко 1017.1 964.2
09 12.04 В 6 н/о н/о +24.1 +12.7 49 +26 +26 жарко 1018.2 965.2
10 12.04 В 7 н/о н/о +23.4 +12.7 51 +26 +26 жарко 1018.8 965.8
12 12.04 В 9 н/о н/о +22.1 +13.5 58 +25 +25 комфорт 1018.8 965.8
13 12.04 В 6 н/о н/о +21.8 +13.4 59 +25 +25 комфорт 1019.0 966.0 +31.9
15 12.04 В 5 н/о н/о +20.0 +15.2 74 +22 +22 комфорт 1018.7 965.7
16 12.04 ЮВ 6 н/о н/о +19.9 +14.9 73 +22 +22 комфорт 1018.3 965.3
18 12.04 В 4 н/о н/о +18.7 +16.1 85 +20 +20 1018.0 965.0
19 12.04 Ю 2 н/о туман местами н/о +18.5 +16.3 87 +20 +20 1017.9 964.9
21 12.04 В 3 н/о н/о +17.8 +17.5 98 +18 +18 1018.0 965.0
22 12.04 В 5 н/о {туман} н/о +17.6 +17.1 97 +17 +17 1017.9 964.9
00 13.04 В 6 н/о н/о +20.2 +16.0 77 +23 +23 комфорт 1018.4 965.4
01 13.04 В 6 н/о {туман} н/о +22.7 +15.3 63 +27 +27 душно 1018.3 965.3 +17.6
03 13.04 В 5 н/о н/о +26.3 +13.4 45 +28 +28 жарко 1016.8 963.9
04 13.04 В 4 н/о н/о +28.4 +12.7 38 +30 +30 жарко 1016.0 963.1
06 13.04 В 3 н/о н/о +31.0 +11.9 31 +31 +31 жарко 1014.4 961.6
07 13.04 СЗ 3 н/о н/о +31.2 +12.1 31 +32 +32 жарко 1014.2 961.4
09 13.04 СВ 3 н/о н/о +30.8 +11.7 31 +31 +31 жарко 1014.0 961.2
10 13.04 В 5 н/о н/о +29.4 +11.5 33 +30 +30 жарко 1014.2 961.4
12 13.04 В 7 н/о н/о +26.7 +11.2 38 +28 +28 жарко 1014.9 962.1
13 13.04 В 6 н/о н/о +25.5 +10.9 40 +27 +27 жарко 1014.9 962.1 +32.2
15 13.04 В 6 н/о н/о +24.3 +10.6 42 +25 +25 комфорт 1014.3 961.5
16 13.04 СВ 6 н/о н/о +23.8 +10.8 44 +25 +25 комфорт 1013.9 961.1
18 13.04 СВ 6 н/о н/о +23.0 +11.4 48 +25 +25 комфорт 1013.4 960.7
19 13.04 СВ 7 н/о н/о +23.1 +11.5 48 +25 +25 комфорт 1012.7 960.0
21 13.04 СВ 6 н/о н/о +23.2 +9.2 41 +25 +25 комфорт 1012.5 959.8
22 13.04 СВ 5 н/о н/о +23.2 +9.2 41 +25 +25 комфорт 1011.9 959.2
00 14.04 С 6 н/о н/о +25.2 +8.7 35 +26 +26 жарко 1012.2 959.5
01 14.04 С 6 н/о н/о +26.8 +8.3 31 +27 +27 жарко 1011.9 959.2 +20.3
03 14.04 СЗ 5 н/о н/о +29.1 +8.2 27 +29 +29 жарко 1010.9 958.3
04 14.04 З 3 н/о туман местами н/о +21.1 +17.1 78 +25 +25 комфорт 1012.0 959.3
06 14.04 ЮЗ 2 н/о н/о +20.2 +16.8 81 +24 +24 комфорт 1011.8 959.1
07 14.04 З 5 н/о туман н/о +17.5 +17.3 99 +17 +17 1013.2 960.5
09 14.04 СВ 3 н/о н/о +17.1 +16.9 99 +17 +17 1012.6 959.9
10 14.04 С 6 н/о туман местами н/о +17.2 +17.2 100 +16 +16 1012.5 959.8
12 14.04 С 7 н/о н/о +18.7 +18.4 98 +19 +19 1011.8 959.1
13 14.04 С 5 н/о {туман} н/о +19.2 +18.0 93 +21 +21 комфорт 1011.8 959.1 +29.8
15 14.04 СЗ 4 н/о н/о +19.4 +19.1 98 +22 +22 комфорт 1012.0 959.3
16 14.04 СЗ 4 н/о н/о +19.5 +19.2 98 +22 +22 комфорт 1011.6 958.9
18 14.04 СЗ 3 н/о н/о +19.0 +18.8 99 +21 +21 комфорт 1011.3 958.7
19 14.04 СЗ 3 н/о н/о +18.4 +18.4 100 +19 +19 1011.1 958.5
21 14.04 З 4 н/о н/о +18.7 +18.7 100 +20 +20 1012.1 959.4
22 14.04 З 3 н/о н/о +18.3 +18.3 100 +19 +19 1012.5 959.8
00 15.04 З 5 н/о н/о +19.7 +17.1 85 +22 +22 комфорт 1013.8 961.0
01 15.04 З 6 н/о н/о +20.1 +16.3 79 +22 +22 комфорт 1014.1 961.3 +17.1
03 15.04 ЮЗ 4 н/о н/о +22.1 +14.2 61 +25 +25 комфорт 1013.9 961.1
04 15.04 З 3 н/о в посл. час дождь {туман} н/о +23.3 +14.0 56 +27 +27 душно 1013.1 960.4
06 15.04 З 2 н/о н/о +25.5 +11.7 42 +27 +27 жарко 1011.7 959.0
07 15.04 З 4 н/о {туман} н/о +26.2 +12.3 42 +28 +28 жарко 1011.6 958.9
09 15.04 СЗ 3 н/о н/о +26.0 +12.1 42 +27 +27 жарко 1011.8 959.1
10 15.04 З 3 н/о н/о +23.9 +12.2 48 +26 +26 жарко 1012.4 959.7
12 15.04 штиль 0 н/о н/о +21.4 +16.1 72 +25 +25 комфорт 1013.4 960.7
13 15.04 штиль 0 н/о н/о +20.2 +17.4 84 +23 +23 комфорт 1013.7 960.9 +26.8
15 15.04 штиль 0 н/о н/о +18.5 +18.2 98 +19 +19 1013.4 960.7
16 15.04 В 1 н/о н/о +17.5 +17.3 99 +19 +19 1012.9 960.2
18 15.04 штиль 0 н/о н/о +16.6 +16.4 99 +16 +16 1012.3 959.6
19 15.04 С 1 н/о н/о +16.0 +15.8 99 +17 +17 1012.3 959.6
21 15.04 С 2 н/о н/о +15.2 +15.0 99 +15 +15 1013.3 960.6
22 15.04 СЗ 2 н/о н/о +15.4 +15.4 100 +15 +15 1013.9 961.1
00 16.04 З 3 н/о н/о +18.9 +15.0 78 +20 +20 1015.3 962.5
01 16.04 З 3 н/о н/о +21.7 +13.1 58 +24 +24 комфорт 1015.2 962.4 +15.2
03 16.04 СЗ 4 н/о н/о +24.3 +12.6 48 +26 +26 жарко 1014.4 961.6
04 16.04 СЗ 5 н/о н/о +26.0 +12.8 44 +28 +28 жарко 1013.4 960.7
06 16.04 СЗ 7 н/о н/о +27.2 +12.4 40 +29 +29 жарко 1012.1 959.4
07 16.04 З 8 н/о н/о +26.8 +10.1 35 +27 +27 жарко 1012.0 959.3
09 16.04 З 6 н/о н/о +26.1 +9.5 35 +27 +27 жарко 1012.8 960.1
10 16.04 З 5 н/о н/о +24.3 +9.1 38 +25 +25 комфорт 1014.0 961.2
12 16.04 З 3 н/о н/о +21.4 +11.1 52 +23 +23 комфорт 1015.2 962.4
13 16.04 З 2 н/о н/о +19.6 +12.8 65 +22 +22 комфорт 1015.8 962.9 +28.1
15 16.04 ЮЗ 2 н/о н/о +17.8 +13.3 75 +19 +19 1016.3 963.4
16 16.04 Ю 3 н/о н/о +18.8 +12.3 66 +20 +20 1016.4 963.5
18 16.04 штиль 0 н/о н/о +15.6 +13.4 87 +15 +15 1016.3 963.4
19 16.04 штиль 0 н/о н/о +14.6 +14.3 98 +14 +14 1016.1 963.2
21 16.04 Ю 2 н/о н/о +14.5 +12.9 90 +14 +14 1017.8 964.8
22 16.04 Ю 4 н/о н/о +14.7 +12.4 86 +14 +14 1018.5 965.5
00 17.04 ЮВ 6 н/о н/о +17.9 +11.0 64 +17 +17 1020.2 967.1
01 17.04 В 5 н/о н/о +20.9 +11.5 55 +23 +23 комфорт 1020.4 967.3 +14.2
03 17.04 СВ 3 н/о н/о +23.6 +10.6 44 +25 +25 комфорт 1020.1 967.0
04 17.04 ЮВ 2 н/о н/о +25.0 +10.8 41 +26 +26 жарко 1019.5 966.4
06 17.04 В 3 н/о н/о +25.6 +9.8 37 +26 +26 жарко 1017.9 964.9
07 17.04 В 2 н/о н/о +26.7 +10.4 36 +27 +27 жарко 1017.6 964.6
09 17.04 В 4 н/о н/о +25.7 +10.3 38 +27 +27 жарко 1017.8 964.8
10 17.04 В 4 н/о н/о +24.4 +11.0 43 +26 +26 жарко 1018.2 965.2
12 17.04 В 5 н/о н/о +21.7 +11.4 52 +24 +24 комфорт 1019.3 966.2
13 17.04 В 5 н/о н/о +21.0 +11.3 54 +23 +23 комфорт 1019.6 966.5 +27.0
15 17.04 В 5 н/о н/о +19.0 +11.6 62 +20 +20 1019.0 966.0
16 17.04 В 5 н/о н/о +18.6 +11.4 63 +19 +19 1018.6 965.6
18 17.04 В 7 н/о н/о +17.3 +11.1 67 +16 +16 1017.9 964.9
19 17.04 В 7 н/о н/о +16.7 +11.0 69 +15 +15 1017.5 964.5
21 17.04 В 8 н/о н/о +16.0 +11.0 72 +14 +14 1017.6 964.6
22 17.04 В 9 н/о н/о +15.6 +11.0 74 +14 +14 1017.5 964.5
00 18.04 В 9 н/о н/о +17.5 +11.8 69 +16 +16 1017.9 964.9
01 18.04 СВ 6 н/о н/о +20.0 +12.5 62 +21 +21 комфорт 1018.0 965.0 +15.6
03 18.04 СВ 4 н/о н/о +25.9 +13.1 45 +28 +28 жарко 1016.4 963.5
04 18.04 СВ 3 н/о н/о +27.3 +12.5 40 +29 +29 жарко 1015.2 962.4
06 18.04 С 3 н/о н/о +28.7 +12.2 36 +30 +30 жарко 1013.4 960.7
07 18.04 С 4 н/о н/о +29.3 +12.7 36 +30 +30 жарко 1013.3 960.6
09 18.04 С 5 н/о н/о +27.7 +13.3 41 +29 +29 жарко 1013.0 960.3
10 18.04 СВ 3 н/о н/о +26.6 +13.7 45 +29 +29 жарко 1012.6 959.9
12 18.04 В 3 н/о н/о +24.7 +14.2 52 +27 +27 жарко 1012.9 960.2
13 18.04 В 5 н/о н/о +24.7 +14.2 52 +27 +27 жарко 1012.6 959.9 +29.7
15 18.04 В 7 н/о н/о +23.7 +15.2 59 +27 +27 жарко 1011.0 958.4
16 18.04 СВ 3 н/о н/о +21.8 +17.2 75 +26 +26 душно 1010.8 958.2
18 18.04 С 5 н/о н/о +22.1 +16.4 70 +26 +26 душно 1009.9 957.3
19 18.04 С 5 н/о н/о +21.5 +16.5 73 +25 +25 комфорт 1008.7 956.2
21 18.04 С 8 н/о н/о +22.9 +15.5 63 +27 +27 душно 1008.7 956.2
22 18.04 С 6 н/о н/о +21.8 +15.9 69 +25 +25 комфорт 1008.8 956.3
00 19.04 З 7 н/о н/о +21.1 +12.8 59 +23 +23 комфорт 1011.7 959.0
01 19.04 З 8 н/о н/о +21.7 +13.1 58 +24 +24 комфорт 1012.0 959.3 +17.5
03 19.04 З 9 н/о н/о +23.0 +11.1 47 +25 +25 комфорт 1012.0 959.3
04 19.04 З 9 н/о н/о +23.4 +8.7 39 +25 +25 комфорт 1011.4 958.8
06 19.04 З 9 н/о н/о +23.9 +8.7 38 +25 +25 комфорт 1011.0 958.4
07 19.04 З 8 н/о н/о +23.9 +8.3 37 +24 +24 комфорт 1011.0 958.4

 

Местоположение метеостанции Лавертон (Западная Австралия, Австралия): широта -28.61 долгота 122.41 высота над уровнем моря 465 м.

В архиве по умолчанию представлена погода в Лавертоне за последнюю неделю. Архивные данные за месяц целиком и за предыдущие месяцы, начиная с января 2011 года, Вы можете получить, выбрав интересующий диапазон дат из раскрывающегося списка и нажав кнопку "Ввод!".


*Определитесь, кто Вы:
робот инопланетянин человек

Внимание! Время в таблицах - всемирное. Для получения местного времени необходимо прибавить поправку, которая равна 8 ч.

Смотрите также архив погоды в соседних городах и на ближайших метеорологических станциях:

Погода в Леонора аэропорту (Западная Австралия, Австралия) (110 км)
Погода в Леинстере (Западная Австралия, Австралия) (188 км)
Погода в Калгурли-Боулдере (Западная Австралия, Австралия) (259 км)
Погода в Норсмане (Западная Австралия, Австралия) (406 км)
Погода в Саутерн Кросс (Западная Австралия, Австралия) (415 км)
Погода в Микатарре (Западная Австралия, Австралия) (441 км)
Погода в Маунт Магнет аэропорту (Западная Австралия, Австралия) (452 км)
Погода в Салмон Гамс (Западная Австралия, Австралия) (492 км)
Погода в Уорбертоне (Западная Австралия, Австралия) (496 км)
Погода в Эсперансе (Западная Австралия, Австралия) (567 км)

Пояснения к столбцам:

Ветер - указаны скорость ветра в м/с - средняя за 10 мин, порывы в срок и между сроками (в фигурных скобках) и направление, откуда дует ветер: С - северный, СВ - северо-восточный, В - восточный, ЮВ - юго-восточный, Ю - южный, ЮЗ - юго-западный, З - западный, СЗ - северо-западный.
Видимость - горизонтальная дальность видимости в метрах или километрах. При видимости от 1 до 10 км при отсутствии осадков обычно наблюдается дымка, при ухудшении видимости до 1 км и менее - туман. В сухую погоду видимость может ухудшаться дымом, пылью или мглою.
Явления - указаны атмосферные явления, наблюдавшиеся в срок или в последний час перед сроком; фигурными скобками обозначены явления, наблюдавшиеся между сроками (за 1-3 часа до срока); квадратными скобками обозначены град или гололедные отложения с указанием их диаметра в мм.
Облачность - указаны через наклонную черту общая и нижняя облачность в баллах и высота нижней границы облаков в метрах; квадратными скобками обозначены формы облаков: Ci - перистые, Cs - перисто-слоистые, Cc - перисто-кучевые, Ac - высококучевые, As - высокослоистые, Sc - слоисто-кучевые, Ns - слоисто-дождевые, Cu - кучевые, Cb - кучево-дождевые. Подробнее классификацию облаков см. в Атласе облаков (PDF).
T - Температура воздуха - температура, измеренная на высоте 2 м над землей.
Td - Температура точки росы - температура, при понижении до которой содержащийся в воздухе водяной пар достигнет насыщения.
f - Относительная влажность воздуха - влажноcть воздуха, измеренная на высоте 2 м над землей.
Te - Эффективная температура - температура, которую ощущает одетый по сезону человек в тени. Характеристика душности погоды. При расчете учитывается влияние влажности воздуха и скорости ветра на теплоощущения человека.
Tes - Эффективная температура на солнце - температура, которую ощущает человек, с поправкой на солнечный нагрев. Характеристика знойности погоды. Зависит от высоты солнца над горизонтом, облачности и скорости ветра. Ночью, в пасмурную погоду, а также при ветре 12 м/с и более поправка равна нулю.
P - Атмосферное давление - приведенное к уровню моря атмосферное давление.
Po - Атмосферное давление - измеренное на уровне метеостанции атмосферное давление.
Tmin - Минимальная температура - минимум температуры воздуха на высоте 2 м над землей.
Tmax - Максимальная температура - максимум температуры воздуха на высоте 2 м над землей.
R - Количество осадков - Количество выпавших осадков за период времени, мм. При наведении курсора мыши на число - период времени, за который выпало указанное количество осадков.
R24 - Количество осадков - Количество выпавших осадков за 24 часа, мм.
S - Снежный покров - Высота снежного покрова, см. При наведении курсора мыши на число - состояние снежного покрова и степень покрытия местности в баллах.